AMQ464 DTTJ-EPKT

Flight info

Callsign AMQ464
Flight time 2h 29m
Altitude 24000
Route LILNA1A LILNA J735 RELBA/N0447F380 UM735 BABLO DCT KAPIL DCT GIANO DCT BEROL DCT VEXUV DCT TIXIR DCT TORPO/N0444F370 DCT GISER DCT INSAX DCT TOVKA DCT ODNEM DCT UPLAV DCT BAVOK
Aircraft A320/M-SDE3FGHIRWY/LB1

Departure

Time 2026-04-29 14:14
Airport Djerba Zarzis International Airport (DTTJ)

Arrival

Time 2026-04-29 16:43
Airport Katowice Wojciech Korfanty International Airport (EPKT)
Time Latitude Longitude Altitude Speed Heading
2026-04-29 13:55 33.87318 10.77676 27 ft 0 kts 178°
2026-04-29 14:06 33.87326 10.77675 27 ft 3 kts 178°
2026-04-29 14:06 33.87349 10.77674 27 ft 3 kts 179°
2026-04-29 14:07 33.87371 10.77679 26 ft 3 kts 218°
2026-04-29 14:07 33.87384 10.77700 26 ft 3 kts 256°
2026-04-29 14:07 33.87387 10.77721 26 ft 0 kts 268°
2026-04-29 14:10 33.87386 10.77694 26 ft 9 kts 268°
2026-04-29 14:10 33.87383 10.77582 26 ft 16 kts 268°
2026-04-29 14:11 33.87380 10.77432 27 ft 20 kts 268°
2026-04-29 14:11 33.87370 10.77260 27 ft 22 kts 264°
2026-04-29 14:11 33.87362 10.77061 27 ft 25 kts 268°
2026-04-29 14:11 33.87356 10.76840 24 ft 28 kts 268°
2026-04-29 14:12 33.87350 10.76616 20 ft 26 kts 268°
2026-04-29 14:12 33.87344 10.76389 21 ft 28 kts 268°
2026-04-29 14:12 33.87339 10.76139 16 ft 31 kts 274°
2026-04-29 14:12 33.87462 10.76057 21 ft 23 kts
2026-04-29 14:13 33.87507 10.76212 22 ft 23 kts 88°
2026-04-29 14:13 33.87512 10.76448 20 ft 48 kts 88°
2026-04-29 14:13 33.87530 10.77188 21 ft 124 kts 88°
2026-04-29 14:13 33.87563 10.78452 99 ft 169 kts 89°
2026-04-29 14:14 33.87611 10.79889 677 ft 174 kts 84°
2026-04-29 14:14 33.87956 10.81276 1417 ft 174 kts 58°
2026-04-29 14:14 33.88848 10.82227 2041 ft 179 kts 17°
2026-04-29 14:14 33.90144 10.82242 2389 ft 200 kts 341°
2026-04-29 14:15 33.91487 10.81518 2793 ft 220 kts 334°
2026-04-29 14:15 33.92893 10.80735 3557 ft 224 kts 335°
2026-04-29 14:15 33.94330 10.79959 4361 ft 228 kts 337°
2026-04-29 14:15 33.95872 10.79601 5103 ft 234 kts
2026-04-29 14:16 33.97547 10.80000 5504 ft 258 kts 14°
2026-04-29 14:16 33.99350 10.80593 5992 ft 277 kts 15°
2026-04-29 14:16 34.01227 10.81232 6772 ft 283 kts 15°
2026-04-29 14:16 34.03138 10.81885 7597 ft 288 kts 15°
2026-04-29 14:17 34.05080 10.82544 8401 ft 292 kts 15°
2026-04-29 14:17 34.07054 10.83206 9176 ft 296 kts 15°
2026-04-29 14:17 34.09051 10.83870 9923 ft 300 kts 15°
2026-04-29 14:17 34.11094 10.84548 10414 ft 314 kts 15°
2026-04-29 14:18 34.13277 10.85273 10588 ft 337 kts 15°
2026-04-29 14:18 34.15601 10.86043 10903 ft 352 kts 15°
2026-04-29 14:18 34.17983 10.86833 11474 ft 358 kts 15°
2026-04-29 14:18 34.20401 10.87633 12077 ft 362 kts 15°
2026-04-29 14:19 34.22845 10.88442 12662 ft 366 kts 15°
2026-04-29 14:19 34.25310 10.89261 13223 ft 369 kts 15°
2026-04-29 14:19 34.27801 10.90090 13760 ft 373 kts 15°
2026-04-29 14:19 34.30312 10.90929 14274 ft 376 kts 15°
2026-04-29 14:20 34.32848 10.91779 14766 ft 379 kts 15°
2026-04-29 14:20 34.35404 10.92640 15242 ft 383 kts 15°
2026-04-29 14:20 34.37978 10.93508 15696 ft 386 kts 15°
2026-04-29 14:20 34.40572 10.94381 16127 ft 389 kts 15°
2026-04-29 14:21 34.43183 10.95261 16543 ft 391 kts 15°
2026-04-29 14:21 34.45816 10.96151 16944 ft 394 kts 15°
2026-04-29 14:21 34.48432 10.97035 17326 ft 397 kts 15°
2026-04-29 14:21 34.51105 10.97940 17698 ft 399 kts 15°
2026-04-29 14:22 34.53789 10.98848 18056 ft 402 kts 15°
2026-04-29 14:22 34.56490 10.99761 18400 ft 404 kts 15°
2026-04-29 14:22 34.59211 11.00679 18733 ft 407 kts 15°
2026-04-29 14:22 34.61945 11.01601 19056 ft 409 kts 15°
2026-04-29 14:23 34.64698 11.02530 19370 ft 412 kts 15°
2026-04-29 14:23 34.67463 11.03466 19676 ft 414 kts 15°
2026-04-29 14:23 34.70245 11.04411 19970 ft 416 kts 15°
2026-04-29 14:23 34.73040 11.05363 20252 ft 418 kts 15°
2026-04-29 14:24 34.75848 11.06321 20527 ft 420 kts 15°
2026-04-29 14:24 34.78670 11.07283 20789 ft 422 kts 15°
2026-04-29 14:24 34.81509 11.08252 21043 ft 424 kts 15°
2026-04-29 14:24 34.84358 11.09225 21287 ft 426 kts 15°
2026-04-29 14:25 34.87220 11.10202 21524 ft 428 kts 15°
2026-04-29 14:25 34.90113 11.11055 21743 ft 429 kts
2026-04-29 14:25 34.93065 11.11634 21955 ft 431 kts
2026-04-29 14:25 34.96031 11.12214 22156 ft 432 kts
2026-04-29 14:26 34.99008 11.12795 22351 ft 434 kts
2026-04-29 14:26 35.01990 11.13377 22533 ft 435 kts
2026-04-29 14:26 35.04948 11.13954 22704 ft 437 kts
2026-04-29 14:26 35.07956 11.14543 22871 ft 438 kts
2026-04-29 14:27 35.10970 11.15135 23030 ft 439 kts
2026-04-29 14:27 35.13990 11.15732 23182 ft 440 kts
2026-04-29 14:27 35.17023 11.16335 23329 ft 442 kts
2026-04-29 14:28 35.23105 11.17544 23605 ft 444 kts
2026-04-29 14:28 35.26158 11.18150 23733 ft 445 kts
2026-04-29 14:28 35.29218 11.18757 23858 ft 446 kts
2026-04-29 14:28 35.32282 11.19365 23983 ft 447 kts
2026-04-29 14:29 35.35354 11.19972 24109 ft 447 kts
2026-04-29 14:29 35.38431 11.20578 24234 ft 448 kts
2026-04-29 14:29 35.41513 11.21185 24359 ft 449 kts
2026-04-29 14:29 35.44596 11.21792 24484 ft 449 kts
2026-04-29 14:30 35.47687 11.22405 24609 ft 449 kts
2026-04-29 14:30 35.49732 11.22812 24691 ft 449 kts
2026-04-29 14:30 35.52818 11.23427 24816 ft 450 kts
2026-04-29 14:30 35.56911 11.24242 24981 ft 450 kts
2026-04-29 14:31 35.60000 11.24856 25106 ft 450 kts
2026-04-29 14:31 35.63090 11.25469 25230 ft 450 kts
2026-04-29 14:31 35.66176 11.26084 25355 ft 449 kts
2026-04-29 14:31 35.69265 11.26702 25479 ft 449 kts
2026-04-29 14:32 35.72346 11.27321 25604 ft 449 kts
2026-04-29 14:32 35.74430 11.27741 25688 ft 449 kts
2026-04-29 14:32 35.77468 11.28356 25811 ft 448 kts
2026-04-29 14:32 35.80548 11.28983 25936 ft 448 kts
2026-04-29 14:33 35.83622 11.29610 26060 ft 448 kts
2026-04-29 14:33 35.86692 11.30231 26185 ft 447 kts
2026-04-29 14:33 35.89768 11.30847 26310 ft 447 kts
2026-04-29 14:33 35.92835 11.31459 26435 ft 447 kts
2026-04-29 14:34 35.95903 11.32076 26560 ft 446 kts
2026-04-29 14:34 35.98967 11.32693 26684 ft 446 kts
2026-04-29 14:34 36.02001 11.33304 26808 ft 446 kts
2026-04-29 14:34 36.05065 11.33920 26933 ft 446 kts
2026-04-29 14:35 36.08124 11.34537 27058 ft 445 kts
2026-04-29 14:35 36.11182 11.35154 27182 ft 445 kts
2026-04-29 14:35 36.14238 11.35772 27307 ft 445 kts
2026-04-29 14:35 36.17292 11.36392 27432 ft 445 kts
2026-04-29 14:36 36.20347 11.37015 27557 ft 444 kts
2026-04-29 14:36 36.23399 11.37633 27682 ft 444 kts
2026-04-29 14:36 36.26452 11.38251 27807 ft 444 kts
2026-04-29 14:36 36.29497 11.38870 27931 ft 444 kts
2026-04-29 14:37 36.32501 11.39480 28054 ft 444 kts
2026-04-29 14:37 36.35545 11.40098 28179 ft 443 kts
2026-04-29 14:37 36.38593 11.40719 28304 ft 443 kts
2026-04-29 14:37 36.41636 11.41339 28429 ft 443 kts
2026-04-29 14:38 36.44677 11.41959 28554 ft 443 kts
2026-04-29 14:38 36.47721 11.42578 28679 ft 443 kts
2026-04-29 14:38 36.50757 11.43196 28804 ft 442 kts
2026-04-29 14:38 36.53794 11.43816 28929 ft 442 kts
2026-04-29 14:39 36.56830 11.44435 29054 ft 442 kts
2026-04-29 14:39 36.59865 11.45052 29179 ft 442 kts
2026-04-29 14:39 36.62895 11.45669 29304 ft 441 kts
2026-04-29 14:39 36.65927 11.46288 29430 ft 441 kts
2026-04-29 14:40 36.68953 11.46909 29555 ft 441 kts
2026-04-29 14:40 36.71979 11.47532 29680 ft 441 kts
2026-04-29 14:40 36.75001 11.48157 29805 ft 440 kts
2026-04-29 14:40 36.78025 11.48781 29930 ft 440 kts
2026-04-29 14:41 36.81045 11.49404 30055 ft 440 kts
2026-04-29 14:41 36.84047 11.50106 30180 ft 440 kts 14°
2026-04-29 14:41 36.86972 11.51214 30306 ft 439 kts 18°
2026-04-29 14:42 36.92836 11.53590 29821 ft 453 kts 18°
2026-04-29 14:42 36.95831 11.54800 29981 ft 451 kts 18°
2026-04-29 14:42 36.98825 11.56010 30010 ft 452 kts 18°
2026-04-29 14:43 37.04799 11.58432 30009 ft 456 kts 18°
2026-04-29 14:43 37.10854 11.60891 30009 ft 459 kts 18°
2026-04-29 14:44 37.16939 11.63368 30009 ft 461 kts 18°
2026-04-29 14:44 37.23062 11.65869 30009 ft 463 kts 18°
2026-04-29 14:45 37.29202 11.68378 30009 ft 465 kts 18°
2026-04-29 14:45 37.35371 11.70907 30009 ft 467 kts 18°
2026-04-29 14:46 37.41560 11.73451 30009 ft 468 kts 18°
2026-04-29 14:46 37.47770 11.76003 30009 ft 469 kts 18°
2026-04-29 14:47 37.53948 11.78539 30009 ft 470 kts 18°
2026-04-29 14:47 37.60223 11.81124 30009 ft 471 kts 18°
2026-04-29 14:48 37.66412 11.83686 30009 ft 472 kts 18°
2026-04-29 14:48 37.72662 11.86283 30009 ft 473 kts 18°
2026-04-29 14:49 37.78912 11.88873 30009 ft 473 kts 18°
2026-04-29 14:49 37.85170 11.91459 30009 ft 473 kts 18°
2026-04-29 14:50 37.91438 11.94054 30009 ft 474 kts 18°
2026-04-29 14:50 37.97702 11.96670 30009 ft 474 kts 18°
2026-04-29 14:51 38.03971 11.99295 30009 ft 474 kts 18°
2026-04-29 14:51 38.10241 12.01922 30009 ft 475 kts 18°
2026-04-29 14:52 38.16515 12.04550 30009 ft 475 kts 18°
2026-04-29 14:52 38.22750 12.07170 30009 ft 475 kts 18°
2026-04-29 14:53 38.29025 12.09808 30009 ft 475 kts 18°
2026-04-29 14:53 38.35294 12.12492 30007 ft 475 kts 21°
2026-04-29 14:54 38.41274 12.16101 30008 ft 475 kts 26°
2026-04-29 14:54 38.47213 12.19805 30009 ft 475 kts 26°
2026-04-29 14:55 38.53150 12.23516 30009 ft 475 kts 26°
2026-04-29 14:55 38.59094 12.27231 30009 ft 475 kts 26°
2026-04-29 14:56 38.65034 12.30960 30009 ft 476 kts 26°
2026-04-29 14:56 38.70978 12.34694 30009 ft 476 kts 26°
2026-04-29 14:57 38.76878 12.38405 30009 ft 476 kts 26°
2026-04-29 14:57 38.82817 12.42153 30009 ft 476 kts 26°
2026-04-29 14:58 38.88873 12.45565 30010 ft 475 kts 18°
2026-04-29 14:58 38.95166 12.48183 30009 ft 475 kts 18°
2026-04-29 14:59 39.01464 12.50799 30009 ft 475 kts 18°
2026-04-29 14:59 39.07762 12.53412 30009 ft 475 kts 18°
2026-04-29 15:00 39.14057 12.56043 30009 ft 476 kts 18°
2026-04-29 15:00 39.20353 12.58681 30009 ft 476 kts 18°
2026-04-29 15:01 39.26641 12.61317 30009 ft 476 kts 18°
2026-04-29 15:01 39.32936 12.63965 30009 ft 476 kts 18°
2026-04-29 15:02 39.39187 12.66600 30009 ft 476 kts 18°
2026-04-29 15:02 39.45485 12.69266 30009 ft 476 kts 18°
2026-04-29 15:03 39.51779 12.71921 30009 ft 476 kts 18°
2026-04-29 15:03 39.58072 12.74584 30009 ft 476 kts 18°
2026-04-29 15:04 39.64364 12.77259 30009 ft 476 kts 18°
2026-04-29 15:04 39.70656 12.79939 30009 ft 476 kts 18°
2026-04-29 15:05 39.76949 12.82624 30009 ft 476 kts 18°
2026-04-29 15:05 39.83243 12.85312 30009 ft 476 kts 18°
2026-04-29 15:06 39.89540 12.87996 30009 ft 476 kts 18°
2026-04-29 15:06 39.95789 12.90672 30009 ft 476 kts 18°
2026-04-29 15:07 40.02081 12.93382 30009 ft 476 kts 18°
2026-04-29 15:07 40.08368 12.96085 30009 ft 476 kts 18°
2026-04-29 15:08 40.14660 12.98788 30009 ft 476 kts 18°
2026-04-29 15:08 40.20934 13.01560 30005 ft 476 kts 22°
2026-04-29 15:09 40.27006 13.05010 30009 ft 476 kts 23°
2026-04-29 15:09 40.33077 13.08472 30009 ft 476 kts 23°
2026-04-29 15:10 40.39156 13.11932 30009 ft 476 kts 23°
2026-04-29 15:10 40.45230 13.15400 30009 ft 476 kts 23°
2026-04-29 15:11 40.51263 13.18853 30009 ft 476 kts 23°
2026-04-29 15:11 40.57336 13.22341 30009 ft 476 kts 23°
2026-04-29 15:12 40.63406 13.25833 30009 ft 476 kts 23°
2026-04-29 15:12 40.69477 13.29320 30009 ft 476 kts 22°
2026-04-29 15:13 40.75790 13.31906 30008 ft 475 kts 15°
2026-04-29 15:13 40.82162 13.34280 30009 ft 476 kts 15°
2026-04-29 15:14 40.88532 13.36673 30009 ft 476 kts 15°
2026-04-29 15:14 40.94898 13.39072 30009 ft 476 kts 15°
2026-04-29 15:15 41.01233 13.41454 30009 ft 476 kts 15°
2026-04-29 15:15 41.07641 13.43861 30007 ft 476 kts 15°
2026-04-29 15:16 41.13965 13.46246 30009 ft 475 kts 15°
2026-04-29 15:16 41.20330 13.48652 30009 ft 476 kts 15°
2026-04-29 15:17 41.26698 13.51057 30009 ft 475 kts 15°
2026-04-29 15:17 41.33064 13.53482 30009 ft 475 kts 16°
2026-04-29 15:18 41.39427 13.55910 30009 ft 475 kts 16°
2026-04-29 15:18 41.45785 13.58332 30009 ft 475 kts 15°
2026-04-29 15:19 41.52149 13.60754 30009 ft 475 kts 15°
2026-04-29 15:19 41.58512 13.63191 30009 ft 475 kts 16°
2026-04-29 15:20 41.64866 13.65625 30009 ft 475 kts 16°
2026-04-29 15:20 41.71220 13.68074 30009 ft 475 kts 16°
2026-04-29 15:21 41.77531 13.70518 30009 ft 475 kts 16°
2026-04-29 15:21 41.83886 13.72968 30009 ft 475 kts 16°
2026-04-29 15:22 41.90240 13.75426 30009 ft 475 kts 16°
2026-04-29 15:22 41.96592 13.77882 30009 ft 475 kts 16°
2026-04-29 15:23 42.02941 13.80347 30009 ft 475 kts 16°
2026-04-29 15:23 42.08265 13.82425 30009 ft 475 kts 16°
2026-04-29 15:24 42.14572 13.84886 30009 ft 475 kts 16°
2026-04-29 15:24 42.20918 13.87361 30008 ft 475 kts 16°
2026-04-29 15:25 42.27259 13.89848 30004 ft 474 kts 16°
2026-04-29 15:25 42.33594 13.92366 30009 ft 474 kts 16°
2026-04-29 15:26 42.39924 13.94914 30009 ft 475 kts 16°
2026-04-29 15:26 42.46256 13.97464 30009 ft 475 kts 16°
2026-04-29 15:27 42.52590 14.00003 30009 ft 475 kts 16°
2026-04-29 15:27 42.58923 14.02541 30009 ft 475 kts 16°
2026-04-29 15:28 42.65253 14.05093 30009 ft 474 kts 16°
2026-04-29 15:28 42.71579 14.07655 30009 ft 474 kts 16°
2026-04-29 15:29 42.77871 14.10203 30009 ft 474 kts 16°
2026-04-29 15:30 42.90517 14.15339 30009 ft 474 kts 16°
2026-04-29 15:30 42.96842 14.17917 30009 ft 474 kts 16°
2026-04-29 15:31 43.03160 14.20501 30009 ft 474 kts 17°
2026-04-29 15:31 43.09483 14.23092 30009 ft 474 kts 17°
2026-04-29 15:32 43.15800 14.25680 30009 ft 474 kts 17°
2026-04-29 15:32 43.22120 14.28278 30009 ft 474 kts 17°
2026-04-29 15:33 43.28440 14.30878 30009 ft 474 kts 17°
2026-04-29 15:33 43.34756 14.33483 30007 ft 474 kts 17°
2026-04-29 15:34 43.41031 14.36076 30003 ft 474 kts 17°
2026-04-29 15:34 43.47342 14.38693 30001 ft 474 kts 17°
2026-04-29 15:35 43.53649 14.41318 30010 ft 474 kts 17°
2026-04-29 15:35 43.59948 14.44044 30009 ft 474 kts 18°
2026-04-29 15:36 43.66166 14.47090 30009 ft 474 kts 20°
2026-04-29 15:36 43.72350 14.50246 30009 ft 474 kts 20°
2026-04-29 15:37 43.78560 14.53335 30007 ft 474 kts 19°
2026-04-29 15:37 43.84775 14.56361 30003 ft 473 kts 19°
2026-04-29 15:38 43.90949 14.59380 30010 ft 473 kts 19°
2026-04-29 15:38 43.97156 14.62446 30009 ft 474 kts 19°
2026-04-29 15:39 44.03369 14.65520 30009 ft 474 kts 19°
2026-04-29 15:39 44.09577 14.68596 30009 ft 474 kts 19°
2026-04-29 15:40 44.15783 14.71681 30009 ft 474 kts 19°
2026-04-29 15:40 44.21989 14.74775 30009 ft 474 kts 19°
2026-04-29 15:41 44.28199 14.77882 30009 ft 474 kts 19°
2026-04-29 15:41 44.34401 14.80982 30009 ft 474 kts 19°
2026-04-29 15:42 44.40574 14.84069 30008 ft 473 kts 19°
2026-04-29 15:42 44.46771 14.87186 30006 ft 473 kts 19°
2026-04-29 15:43 44.52972 14.90304 30004 ft 473 kts 19°
2026-04-29 15:43 44.59171 14.93431 30009 ft 473 kts 19°
2026-04-29 15:44 44.65368 14.96562 30009 ft 473 kts 20°
2026-04-29 15:44 44.71562 14.99713 30009 ft 473 kts 20°
2026-04-29 15:45 44.77755 15.02872 30009 ft 473 kts 20°
2026-04-29 15:45 44.83951 15.06021 30009 ft 473 kts 20°
2026-04-29 15:46 44.90141 15.09179 30009 ft 473 kts 20°
2026-04-29 15:46 44.96337 15.12345 30009 ft 473 kts 20°
2026-04-29 15:47 45.02492 15.15491 30009 ft 473 kts 20°
2026-04-29 15:47 45.08691 15.18629 30009 ft 473 kts 18°
2026-04-29 15:48 45.14963 15.21467 30009 ft 473 kts 17°
2026-04-29 15:48 45.21261 15.24176 30009 ft 473 kts 17°
2026-04-29 15:49 45.27541 15.26950 30009 ft 473 kts 17°
2026-04-29 15:49 45.33809 15.29796 30009 ft 473 kts 18°
2026-04-29 15:50 45.40074 15.32647 30008 ft 473 kts 17°
2026-04-29 15:50 45.46343 15.35495 30009 ft 473 kts 17°
2026-04-29 15:51 45.52618 15.38347 30009 ft 473 kts 17°
2026-04-29 15:51 45.58881 15.41196 30009 ft 473 kts 18°
2026-04-29 15:52 45.65110 15.44046 30009 ft 473 kts 18°
2026-04-29 15:52 45.71382 15.46925 30009 ft 473 kts 18°
2026-04-29 15:53 45.77640 15.49797 30009 ft 473 kts 18°
2026-04-29 15:53 45.83907 15.52673 30009 ft 473 kts 18°
2026-04-29 15:54 45.90169 15.55553 30009 ft 473 kts 18°
2026-04-29 15:54 45.96433 15.58437 30009 ft 472 kts 18°
2026-04-29 15:55 46.02693 15.61340 30008 ft 472 kts 18°
2026-04-29 15:55 46.08910 15.64234 30007 ft 472 kts 18°
2026-04-29 15:56 46.15165 15.67138 30005 ft 472 kts 18°
2026-04-29 15:56 46.21422 15.70056 30004 ft 472 kts 18°
2026-04-29 15:57 46.27673 15.72982 30009 ft 472 kts 18°
2026-04-29 15:57 46.33918 15.75909 30009 ft 472 kts 18°
2026-04-29 15:58 46.40171 15.78858 30009 ft 472 kts 18°
2026-04-29 15:58 46.46380 15.81776 30009 ft 472 kts 18°
2026-04-29 15:59 46.52626 15.84717 30009 ft 472 kts 18°
2026-04-29 15:59 46.58877 15.87674 30009 ft 472 kts 18°
2026-04-29 16:00 46.65116 15.90642 30009 ft 472 kts 18°
2026-04-29 16:00 46.71360 15.93616 30009 ft 472 kts 18°
2026-04-29 16:01 46.77606 15.96591 30009 ft 472 kts 18°
2026-04-29 16:01 46.83843 15.99580 30009 ft 472 kts 18°
2026-04-29 16:02 46.90091 16.02568 30009 ft 472 kts 18°
2026-04-29 16:02 46.96332 16.05556 30009 ft 472 kts 18°
2026-04-29 16:03 47.02529 16.08707 30005 ft 472 kts 24°
2026-04-29 16:03 47.08521 16.12654 30009 ft 472 kts 24°
2026-04-29 16:04 47.14513 16.16613 30009 ft 472 kts 24°
2026-04-29 16:04 47.20466 16.20550 30009 ft 472 kts 24°
2026-04-29 16:05 47.26461 16.24522 30009 ft 472 kts 24°
2026-04-29 16:05 47.32447 16.28487 30009 ft 472 kts 24°
2026-04-29 16:06 47.38428 16.32463 30009 ft 472 kts 24°
2026-04-29 16:06 47.44420 16.36455 30009 ft 472 kts 24°
2026-04-29 16:07 47.50398 16.40454 30009 ft 472 kts 24°
2026-04-29 16:07 47.56338 16.44443 30008 ft 472 kts 24°
2026-04-29 16:08 47.62315 16.48460 30007 ft 472 kts 24°
2026-04-29 16:08 47.68290 16.52480 30007 ft 472 kts 24°
2026-04-29 16:09 47.74260 16.56512 30008 ft 472 kts 24°
2026-04-29 16:09 47.80229 16.60565 30008 ft 471 kts 24°
2026-04-29 16:10 47.86193 16.64619 30007 ft 471 kts 24°
2026-04-29 16:10 47.92163 16.68687 30008 ft 471 kts 24°
2026-04-29 16:11 47.98134 16.72761 30009 ft 471 kts 24°
2026-04-29 16:11 48.04100 16.76839 30008 ft 471 kts 24°
2026-04-29 16:12 48.10058 16.80928 30006 ft 471 kts 24°
2026-04-29 16:12 48.16013 16.85028 30006 ft 471 kts 25°
2026-04-29 16:13 48.21930 16.89110 30004 ft 471 kts 24°
2026-04-29 16:13 48.27945 16.92993 29999 ft 470 kts 17°
2026-04-29 16:14 48.34254 16.95613 30004 ft 470 kts 15°
2026-04-29 16:14 48.40572 16.98198 30009 ft 471 kts 15°
2026-04-29 16:15 48.45832 17.00356 30009 ft 471 kts 15°
2026-04-29 16:15 48.52153 17.02965 30009 ft 471 kts 15°
2026-04-29 16:16 48.58475 17.05579 30009 ft 471 kts 15°
2026-04-29 16:16 48.64795 17.08179 30008 ft 471 kts 15°
2026-04-29 16:17 48.71112 17.10804 30008 ft 471 kts 15°
2026-04-29 16:17 48.77420 17.13459 30008 ft 471 kts 15°
2026-04-29 16:18 48.83731 17.16128 30009 ft 471 kts 16°
2026-04-29 16:18 48.89721 17.20102 30008 ft 471 kts 26°
2026-04-29 16:19 48.95574 17.24565 30007 ft 471 kts 26°
2026-04-29 16:19 49.01428 17.29049 30007 ft 471 kts 26°
2026-04-29 16:20 49.07274 17.33532 30006 ft 470 kts 26°
2026-04-29 16:20 49.13120 17.38026 30005 ft 470 kts 26°
2026-04-29 16:21 49.18966 17.42520 30004 ft 470 kts 26°
2026-04-29 16:21 49.24805 17.47029 30004 ft 470 kts 27°
2026-04-29 16:22 49.30651 17.51561 30009 ft 470 kts 27°
2026-04-29 16:22 49.36274 17.56682 30009 ft 470 kts 32°
2026-04-29 16:23 49.41806 17.62040 30009 ft 470 kts 32°
2026-04-29 16:23 49.47338 17.67408 30009 ft 470 kts 32°
2026-04-29 16:24 49.52873 17.72785 30009 ft 471 kts 32°
2026-04-29 16:24 49.58415 17.78188 30009 ft 472 kts 32°
2026-04-29 16:25 49.63929 17.83590 30009 ft 473 kts 32°
2026-04-29 16:25 49.69493 17.89055 29714 ft 475 kts 33°
2026-04-29 16:25 49.72093 17.92190 28172 ft 477 kts 46°
2026-04-29 16:26 49.74218 17.96089 26689 ft 472 kts 51°
2026-04-29 16:26 49.76271 17.99998 25541 ft 462 kts 51°
2026-04-29 16:26 49.78237 18.03742 25102 ft 436 kts 51°
2026-04-29 16:26 49.80109 18.07305 24529 ft 418 kts 51°
2026-04-29 16:27 49.81905 18.10718 24007 ft 400 kts 51°
2026-04-29 16:27 49.83645 18.14024 23505 ft 395 kts 51°
2026-04-29 16:27 49.85377 18.17313 23013 ft 393 kts 51°
2026-04-29 16:27 49.87097 18.20581 22527 ft 390 kts 51°
2026-04-29 16:28 49.88805 18.23835 22038 ft 386 kts 51°
2026-04-29 16:28 49.90492 18.27050 21553 ft 383 kts 51°
2026-04-29 16:28 49.92165 18.30243 21059 ft 380 kts 51°
2026-04-29 16:28 49.93822 18.33412 20566 ft 376 kts 51°
2026-04-29 16:29 49.95463 18.36554 20063 ft 373 kts 51°
2026-04-29 16:29 49.97084 18.39671 19561 ft 369 kts 51°
2026-04-29 16:29 49.98691 18.42761 19057 ft 366 kts 51°
2026-04-29 16:29 50.00263 18.45779 18558 ft 363 kts 51°
2026-04-29 16:30 50.01845 18.48815 18059 ft 359 kts 51°
2026-04-29 16:30 50.03408 18.51823 17565 ft 356 kts 51°
2026-04-29 16:30 50.04956 18.54807 17079 ft 353 kts 51°
2026-04-29 16:30 50.06497 18.57782 16593 ft 350 kts 51°
2026-04-29 16:31 50.08016 18.60725 16117 ft 347 kts 51°
2026-04-29 16:31 50.09522 18.63643 15647 ft 344 kts 51°
2026-04-29 16:31 50.11014 18.66538 15180 ft 341 kts 51°
2026-04-29 16:31 50.12495 18.69414 14718 ft 339 kts 51°
2026-04-29 16:32 50.13963 18.72260 14256 ft 336 kts 51°
2026-04-29 16:32 50.15433 18.75116 13787 ft 337 kts 51°
2026-04-29 16:32 50.16899 18.77974 13319 ft 337 kts 51°
2026-04-29 16:32 50.18364 18.80833 12837 ft 337 kts 51°
2026-04-29 16:33 50.21266 18.86490 11873 ft 335 kts 51°
2026-04-29 16:33 50.22720 18.89327 11385 ft 334 kts 51°
2026-04-29 16:33 50.24167 18.92154 10889 ft 332 kts 51°
2026-04-29 16:34 50.25604 18.94966 10401 ft 330 kts 51°
2026-04-29 16:34 50.27012 18.97724 10234 ft 318 kts 51°
2026-04-29 16:34 50.28365 19.00379 10038 ft 307 kts 51°
2026-04-29 16:34 50.29683 19.02968 9795 ft 301 kts 51°
2026-04-29 16:35 50.30984 19.05526 9584 ft 302 kts 51°
2026-04-29 16:35 50.32303 19.08123 9077 ft 303 kts 51°
2026-04-29 16:35 50.33603 19.10686 8689 ft 300 kts 51°
2026-04-29 16:35 50.34886 19.13222 8062 ft 294 kts 52°
2026-04-29 16:36 50.36151 19.15723 7302 ft 292 kts 52°
2026-04-29 16:36 50.37404 19.18201 6564 ft 288 kts 52°
2026-04-29 16:36 50.38640 19.20645 5840 ft 285 kts 51°
2026-04-29 16:36 50.39864 19.23060 5136 ft 281 kts 51°
2026-04-29 16:37 50.41044 19.25388 4841 ft 262 kts 51°
2026-04-29 16:37 50.42125 19.27530 4707 ft 240 kts 52°
2026-04-29 16:37 50.43118 19.29508 4600 ft 226 kts 52°
2026-04-29 16:37 50.43760 19.30789 4537 ft 225 kts 52°
2026-04-29 16:38 50.45050 19.33361 4402 ft 223 kts 52°
2026-04-29 16:38 50.46010 19.35274 4304 ft 223 kts 51°
2026-04-29 16:38 50.47186 19.36785 4205 ft 220 kts 18°
2026-04-29 16:38 50.48649 19.36749 4123 ft 217 kts 334°
2026-04-29 16:39 50.49710 19.35150 4023 ft 215 kts 291°
2026-04-29 16:39 50.49785 19.32873 3813 ft 211 kts 248°
2026-04-29 16:39 50.49067 19.30865 3565 ft 212 kts 239°
2026-04-29 16:39 50.48330 19.28853 3322 ft 212 kts 240°
2026-04-29 16:40 50.47754 19.26740 3078 ft 211 kts 257°
2026-04-29 16:40 50.47578 19.24484 2841 ft 202 kts 267°
2026-04-29 16:40 50.47559 19.22404 2564 ft 181 kts 269°
2026-04-29 16:40 50.47563 19.20553 2350 ft 160 kts 269°
2026-04-29 16:41 50.47568 19.18893 2141 ft 146 kts 269°
2026-04-29 16:41 50.47573 19.17339 1953 ft 140 kts 269°
2026-04-29 16:41 50.47578 19.15826 1770 ft 138 kts 269°
2026-04-29 16:41 50.47583 19.14330 1590 ft 137 kts 269°
2026-04-29 16:42 50.47587 19.12845 1410 ft 136 kts 269°
2026-04-29 16:42 50.47593 19.11366 1217 ft 136 kts 269°
2026-04-29 16:42 50.47595 19.09894 1023 ft 134 kts 269°
2026-04-29 16:42 50.47599 19.08566 998 ft 102 kts 270°
2026-04-29 16:43 50.47600 19.07735 1000 ft 53 kts 270°
2026-04-29 16:43 50.47600 19.07426 1001 ft 8 kts 270°
2026-04-29 16:43 50.47599 19.07311 1002 ft 18 kts 266°
2026-04-29 16:43 50.47569 19.07100 1001 ft 22 kts 249°
2026-04-29 16:44 50.47493 19.06868 999 ft 25 kts 241°
2026-04-29 16:44 50.47393 19.06636 998 ft 26 kts 204°
2026-04-29 16:44 50.47248 19.06656 998 ft 15 kts 136°
2026-04-29 16:44 50.47236 19.06842 998 ft 20 kts 90°
2026-04-29 16:45 50.47235 19.07078 998 ft 23 kts 90°
2026-04-29 16:45 50.47234 19.07257 998 ft 17 kts 90°
2026-04-29 16:45 50.47186 19.07344 998 ft 12 kts 180°
2026-04-29 16:45 50.47182 19.07344 998 ft 0 kts 180°